Regional Weather Roundup
Issued by NWS Charleston, SC

Current Version | Previous Version | Graphics & Text | Print | Product List | Glossary On
Versions: 1 2 3 4 5 6 7 8 9 10 11 12 13 14 15 16 17 18 19 20 21 22 23 24 25 26 27 28 29 30 31 32 33 34 35 36 37 38 39 40 41 42 43 44 45 46 47 48 49 50
000 ASUS42 KCHS 232010 RWRCHS REGIONAL WEATHER ROUNDUP NATIONAL WEATHER SERVICE CHARLESTON SC 300 PM EST SUN NOV 23 2014 NOTE: "FAIR" INDICATES FEW OR NO CLOUDS BELOW 12,000 FEET WITH NO SIGNIFICANT WEATHER AND/OR OBSTRUCTIONS TO VISIBILITY. NOT ALL STATIONS ARE QUALITY CONTROLLED BY THE NATIONAL WEATHER SERVICE. USE DATA WITH CAUTION...ESPECIALLY DEWPOINT OBSERVATIONS. SCZ027-030-031-034>040-042>050-232100- ...SOUTHEAST SOUTH CAROLINA... CITY SKY/WX TMP DP RH WIND PRES REMARKS N CHARLESTON LGT RAIN 66 64 93 SE16G22 29.93F FOG WATERFRONT PRK N/A 61 N/A N/A E14 N/A MOUNT PLEASANT CLOUDY 66 66 100 E6 29.94F VSB 1 JOHNS ISLAND FOG 66 66 100 E12 29.93F VSB 3/4 PINOPOLIS N/A 66 64 94 SE8G15 29.85F MONCKS CORNER LGT RAIN 66 66 100 SE10G17 29.93F SUMMERVILLE CLOUDY 64 64 100 SE9G20 29.91F BEAUFORT MCAS CLOUDY 67 65 93 SE17G26 29.89F BEAUFORT ARPT CLOUDY 66 66 100 E12G17 29.89F HILTON HEAD IS CLOUDY 66 66 100 E8 29.90F WALTERBORO DRIZZLE 68 N/A N/A SE14G24 29.90F ALLENDALE CLOUDY 66 66 100 SE12 29.86F FOG ...SOUTHERN MIDLANDS AND PEE DEE... CITY SKY/WX TMP DP RH WIND PRES REMARKS GEORGETOWN NOT AVBL KINGSTREE NOT AVBL ORANGEBURG LGT RAIN 65 62 90 SE9 29.89F FOG BARNWELL DRIZZLE 64 64 100 SE12 29.87F AIKEN DRIZZLE 61 61 100 E10 29.90F MANNING NOT AVBL COLUMBIA LGT RAIN 60 58 92 W3 29.89F FOG SUMTER LGT RAIN 63 63 100 SE12 29.89F FLORENCE LGT RAIN 63 61 93 SE12 29.95F FOG MYRTLE BEACH LGT RAIN 64 61 88 SE13 29.97F N MYRTLE BEACH LGT RAIN 63 61 93 E9G17 29.97F FOG $$ GAZ063-065-086>088-099>101-113>116-118-119-134>141-150-232100- ...SOUTHEAST GEORGIA... CITY SKY/WX TMP DP RH WIND PRES REMARKS SAVANNAH ARPT CLOUDY 71 67 87 E9 29.87F FOG HUNTER AAF CLOUDY 69 69 100 E7 29.85F FORT STEWART CLOUDY 72 69 93 E8 29.83F STATESBORO NOT AVBL SYLVANIA CLOUDY 66 65 97 E10 29.86F CLAXTON CLOUDY 70 70 100 SE6 29.84F ...CSRA...CENTRAL AND FAR SOUTHEAST GEORGIA... CITY SKY/WX TMP DP RH WIND PRES REMARKS THOMSON CLOUDY 62 62 100 E7 29.86F AUGUSTA-BUSH LGT RAIN 61 60 97 SE7 29.85F FOG AUGUSTA-DANIEL LGT RAIN 61 60 97 E8 29.85F FOG SWAINSBORO CLOUDY N/A N/A N/A SE7 29.83F HAZE VIDALIA CLOUDY 68 68 100 SE6 29.81F FOG HAZLEHURST LGT RAIN 73 73 100 SE3 29.79F ALMA LGT RAIN 72 69 90 SE8 29.80F WAYCROSS CLOUDY 77 74 91 S9 29.81F JESUP CLOUDY 75 73 94 SE5 29.83F BAXLEY LGT RAIN 73 72 94 SE5 29.80F BRUNSWICK CLOUDY 72 68 88 SE6 29.85F SAINT SIMONS CLOUDY 67 67 100 SE12 29.85F $$ SCZ027-028-034-036>038-045-046-048>050-GAZ119-141-232100- ...LAKE AND SUPPLEMENTAL COASTAL OBSERVATIONS... STATION/POSITION TIME TEMP WIND PRES WAVE SWELL AIR SEA DIR/SP/G HT/PER HT/PER/DIR (UTC) (F) (DEG/KT/KT) (MB) (FT/S) (FT/S/D) UPR LAKE MARION NOT AVBL WINYAH BAY 1900 63 120/ 9 1015.0F LAKE MURRAY 1900 57 80/ 6/ 10 1012.5F ACE BASIN NERRS 1900 64 120/ 5 1013.0F FORT PULASKI 2000 67 100/ 6/ 8 1012.0F SAPELO ISLAND NOT AVBL $$ ANZ835-935-AMZ111-154-330-350-352-354-370-450-454-472-232100- ...C-MAN AND BUOY OBSERVATIONS... STATION/POSITION TIME TEMP WIND PRES WAVE SWELL AIR SEA DIR/SP/G HT/PER HT/PER/DIR (UTC) (F) (DEG/KT/KT) (MB) (FT/S) (FT/S/D) FOLLY BEACH CMAN 1900 63 120/ 12/ 13 1014.9F BUOY 41004 2000 71 75 110/ 35/ 43 1010.7F 11/ 8 2/15 BUOY 41008 2000 67 64 160/ 6/ 6 1011.8F 7/ 8 7/110/ 8 CAPERS NEARSHORE 1900 63 130/ 16/ 17 N/A FRIPP NEARSHORE NOT AVBL STATION/POSITION TIME TEMP WIND PRES WAVE SWELL AIR SEA DIR/SP/G HT/PER HT/PER/DIR (UTC) (F) (DEG/KT/KT) (MB) (FT/S) (FT/S/D) 5E ST. MARYS GA 2000 61 N/A 6/ 8 2/120/11 FRYING PAN BUOY 2000 67 66 130/ 29/ 35 1015.5F 10/ 7 BUOY 41025 2000 69 150/ 17/ 25 1020.2F 4/ 5 2/ 80/ 8 CAPE LOOKOUT NC 1900 63 150/ 15/ 16 1019.8F BUOY 41002 1853 72 73 140/ 19/ 23 1021.2F 6/ 6 2/110/10 BUOY 41010 2000 79 78 160/ 21/ 25 1014.4F 10/ 9 7/130/ 9 ST AUGUSTINE FL 2000 71 150/ 12/ 13 1012.0S $$

USA.gov is the U.S. government's official web portal to all federal, state and local government web resources and services.